TimeEST,TemperatureF,Dew PointF,Humidity,Sea Level PressureIn,VisibilityMPH,Wind Direction,Wind SpeedMPH,Gust SpeedMPH,PrecipitationIn,Events,Conditions,WindDirDegrees,DateUTC
12:15 AM,46.4,41.0,81,30.20,10.0,Calm,Calm,-,N/A,,Clear,0,2013-02-22 05:15:00
12:35 AM,46.4,41.0,81,30.20,10.0,Calm,Calm,-,N/A,,Clear,0,2013-02-22 05:35:00
12:55 AM,46.4,41.0,81,30.19,10.0,Calm,Calm,-,N/A,,Clear,0,2013-02-22 05:55:00
1:15 AM,44.6,41.0,87,30.21,10.0,Calm,Calm,-,N/A,,Clear,0,2013-02-22 06:15:00
1:35 AM,44.6,41.0,87,30.22,10.0,Calm,Calm,-,N/A,,Clear,0,2013-02-22 06:35:00
1:55 AM,44.6,41.0,87,30.20,10.0,Calm,Calm,-,N/A,,Clear,0,2013-02-22 06:55:00
2:15 AM,44.6,41.0,87,30.21,10.0,NNE,3.5,-,N/A,,Clear,20,2013-02-22 07:15:00
2:35 AM,44.6,41.0,87,30.19,10.0,NNE,3.5,-,N/A,,Clear,30,2013-02-22 07:35:00
2:55 AM,44.6,41.0,87,30.22,10.0,North,3.5,-,N/A,,Clear,360,2013-02-22 07:55:00
3:15 AM,44.6,41.0,87,30.23,10.0,NNE,4.6,-,N/A,,Clear,20,2013-02-22 08:15:00
3:35 AM,44.6,39.2,81,30.23,10.0,North,4.6,-,N/A,,Clear,10,2013-02-22 08:35:00
3:55 AM,44.6,39.2,81,30.24,10.0,NNE,4.6,-,N/A,,Clear,30,2013-02-22 08:55:00
4:15 AM,44.6,37.4,76,30.22,10.0,NNE,4.6,-,N/A,,Clear,20,2013-02-22 09:15:00
4:35 AM,44.6,37.4,76,30.23,10.0,NNE,6.9,-,N/A,,Clear,20,2013-02-22 09:35:00
4:55 AM,44.6,37.4,76,30.24,10.0,NE,9.2,-,N/A,,Clear,40,2013-02-22 09:55:00
5:15 AM,44.6,37.4,76,30.24,10.0,NE,8.1,-,N/A,,Clear,50,2013-02-22 10:15:00
5:35 AM,46.4,35.6,66,30.23,10.0,NE,6.9,-,N/A,,Clear,50,2013-02-22 10:35:00
5:55 AM,46.4,35.6,66,30.25,10.0,NE,5.8,-,N/A,,Clear,40,2013-02-22 10:55:00
6:15 AM,46.4,35.6,66,30.23,10.0,ENE,6.9,16.1,N/A,,Clear,60,2013-02-22 11:15:00
6:35 AM,46.4,35.6,66,30.23,10.0,ENE,8.1,-,N/A,,Clear,60,2013-02-22 11:35:00
7:15 AM,46.4,32.0,57,30.24,10.0,ENE,6.9,-,N/A,,Clear,60,2013-02-22 12:15:00
7:35 AM,46.4,32.0,57,30.24,10.0,ENE,4.6,-,N/A,,Clear,60,2013-02-22 12:35:00
7:55 AM,46.4,32.0,57,30.23,10.0,NE,6.9,-,N/A,,Clear,50,2013-02-22 12:55:00
8:15 AM,44.6,33.8,66,30.23,10.0,NE,4.6,-,N/A,Rain,Light Rain,50,2013-02-22 13:15:00
8:35 AM,44.6,33.8,66,30.23,10.0,ENE,5.8,-,N/A,Rain,Light Rain,60,2013-02-22 13:35:00
8:55 AM,42.8,35.6,76,30.24,7.0,East,8.1,-,0.01,Rain,Rain,80,2013-02-22 13:55:00
9:15 AM,41.0,37.4,87,30.23,7.0,ENE,4.6,-,0.01,Rain,Rain,60,2013-02-22 14:15:00
9:35 AM,41.0,37.4,87,30.26,5.0,NNW,4.6,-,0.04,Rain,Rain,340,2013-02-22 14:35:00
9:55 AM,41.0,41.0,100,30.24,7.0,ENE,4.6,-,0.06,Rain,Rain,60,2013-02-22 14:55:00
10:15 AM,41.0,41.0,100,30.22,10.0,ENE,6.9,-,N/A,Rain,Rain,70,2013-02-22 15:15:00
10:55 AM,42.8,42.8,100,30.22,10.0,ENE,8.1,-,N/A,,Clear,70,2013-02-22 15:55:00
11:15 AM,42.8,41.0,93,30.22,10.0,ENE,5.8,-,N/A,,Clear,70,2013-02-22 16:15:00
11:35 AM,42.8,42.8,100,30.22,10.0,NNE,3.5,-,N/A,Rain,Rain,30,2013-02-22 16:35:00
11:55 AM,42.8,42.8,100,30.22,10.0,NE,4.6,-,N/A,,Light Drizzle,50,2013-02-22 16:55:00
12:15 PM,44.6,44.6,100,30.21,10.0,Calm,Calm,-,N/A,,Clear,0,2013-02-22 17:15:00
12:35 PM,44.6,44.6,100,30.20,10.0,ENE,3.5,-,N/A,,Clear,60,2013-02-22 17:35:00
12:55 PM,44.6,44.6,100,30.18,10.0,NNE,4.6,-,N/A,,Clear,30,2013-02-22 17:55:00
1:15 PM,44.6,44.6,100,30.18,10.0,NNE,5.8,-,N/A,,Clear,20,2013-02-22 18:15:00
1:35 PM,44.6,44.6,100,30.16,10.0,ENE,6.9,-,N/A,,Clear,60,2013-02-22 18:35:00
1:55 PM,44.6,44.6,100,30.16,10.0,North,4.6,-,N/A,,Clear,360,2013-02-22 18:55:00
2:15 PM,44.6,44.6,100,30.15,7.0,NNE,4.6,-,N/A,,Clear,20,2013-02-22 19:15:00
2:35 PM,44.6,44.6,100,30.14,7.0,NNE,4.6,-,N/A,,Clear,30,2013-02-22 19:35:00
2:55 PM,44.6,44.6,100,30.15,7.0,NNE,4.6,-,N/A,,Clear,20,2013-02-22 19:55:00
3:15 PM,44.6,44.6,100,30.14,7.0,NNE,4.6,-,N/A,,Clear,30,2013-02-22 20:15:00
3:35 PM,44.6,44.6,100,30.14,5.0,NE,3.5,-,N/A,,Clear,40,2013-02-22 20:35:00
3:55 PM,46.4,46.4,100,30.14,4.0,North,3.5,-,N/A,,Light Drizzle,10,2013-02-22 20:55:00
4:15 PM,44.6,44.6,100,30.14,3.0,NNE,5.8,-,0.02,Rain,Rain,20,2013-02-22 21:15:00
4:35 PM,44.6,44.6,100,30.13,5.0,North,3.5,-,0.03,Rain,Light Rain,350,2013-02-22 21:35:00
4:55 PM,44.6,44.6,100,30.13,5.0,North,3.5,-,0.03,Rain,Rain,10,2013-02-22 21:55:00
5:15 PM,44.6,44.6,100,30.13,3.0,NNW,5.8,-,0.01,,Drizzle,330,2013-02-22 22:15:00
5:35 PM,44.6,44.6,100,30.13,4.0,North,5.8,-,0.02,,Drizzle,360,2013-02-22 22:35:00
6:15 PM,44.6,44.6,100,30.13,4.0,NNW,3.5,-,N/A,,Clear,330,2013-02-22 23:15:00
6:35 PM,42.8,42.8,100,30.14,3.0,North,6.9,-,N/A,Rain,Rain,350,2013-02-22 23:35:00
6:55 PM,42.8,42.8,100,30.14,3.0,North,3.5,-,N/A,,Heavy Drizzle,360,2013-02-22 23:55:00
7:15 PM,42.8,42.8,100,30.14,4.0,NNW,4.6,-,N/A,,Drizzle,340,2013-02-23 00:15:00
7:35 PM,42.8,42.8,100,30.13,4.0,North,5.8,-,N/A,,Drizzle,10,2013-02-23 00:35:00
7:55 PM,42.8,42.8,100,30.13,4.0,North,5.8,-,N/A,,Clear,350,2013-02-23 00:55:00
8:15 PM,42.8,42.8,100,30.13,4.0,North,4.6,-,N/A,,Clear,350,2013-02-23 01:15:00
8:35 PM,42.8,42.8,100,30.13,4.0,North,4.6,-,N/A,,Clear,10,2013-02-23 01:35:00
9:15 PM,42.8,42.8,100,30.13,3.0,NNE,3.5,-,N/A,,Clear,20,2013-02-23 02:15:00
9:35 PM,42.8,42.8,100,30.12,2.5,Calm,Calm,-,N/A,,Clear,0,2013-02-23 02:35:00
10:15 PM,42.8,42.8,100,30.13,2.5,NNW,3.5,-,N/A,,Clear,340,2013-02-23 03:15:00
10:35 PM,42.8,42.8,100,30.12,2.0,North,3.5,-,N/A,,Clear,10,2013-02-23 03:35:00
10:55 PM,42.8,42.8,100,30.11,1.5,Calm,Calm,-,N/A,,Mist,0,2013-02-23 03:55:00
11:15 PM,42.8,42.8,100,30.10,1.2,North,4.6,-,N/A,,Mist,360,2013-02-23 04:15:00
11:35 PM,42.8,42.8,100,30.09,1.0,Calm,Calm,-,N/A,,Mist,0,2013-02-23 04:35:00
11:55 PM,42.8,42.8,100,30.09,1.0,NNW,3.5,-,N/A,,Mist,330,2013-02-23 04:55:00